Regional Weather Roundup
Issued by NWS

Home | Current Version | Previous Version | Text Only | Print | Product List | Glossary On
Versions: 1 2 3 4 5 6 7 8 9 10 11 12 13 14 15 16 17 18 19 20 21 22 23 24 25 26 27 28 29 30 31 32 33 34 35 36 37 38 39 40 41 42 43 44 45 46 47 48 49 50
000
ASUS43 KOAX 250410
RWRNE

WEATHER ROUNDUP FOR NEBRASKA
NATIONAL WEATHER SERVICE OMAHA NE
1100 PM CDT FRI OCT 24 2014

NOTES: SATELLITE DATA IS BEING USED TO AUGMENT CLOUD COVER ABOVE
       12000 FEET.
       "FAIR" INDICATES FEW OR NO CLOUDS BELOW 12,000 FEET WITH NO
       SIGNIFICANT WEATHER AND/OR OBSTRUCTIONS TO VISIBILITY.

  * THESE STATIONS DO NOT REPORT WEATHER SUCH AS RAIN...SNOW OR FOG.

NEZ001>004-019>022-054>056-250500-
NEBRASKA PANHANDLE

CITY           SKY/WX    TMP DP  RH WIND       PRES   REMARKS
SCOTTSBLUFF    CLEAR     52  32  46 E5        30.11R
ALLIANCE       CLEAR     40  34  79 CALM      30.10R
CHADRON        CLEAR     41  35  79 W6        30.11R
KIMBALL        CLEAR     50  28  43 SW7       30.16R
SIDNEY         CLEAR     48  34  58 SW7       30.15R
$$

NEZ057>060-069>072-079>082-250500-
SOUTHWEST NEBRASKA

CITY           SKY/WX    TMP DP  RH WIND       PRES   REMARKS
NORTH PLATTE   CLEAR     46  38  73 CALM      30.05S
IMPERIAL       CLEAR     54  34  46 CALM      30.09R
LEXINGTON      CLEAR     52  41  65 CALM      30.05R
MCCOOK         CLEAR     56  36  47 SW5       30.06R
OGALLALA       CLEAR     47  36  64 CALM      30.07S
$$

NEZ005>010-023>029-035>040-094-250500-
NORTH CENTRAL NEBRASKA

CITY           SKY/WX    TMP DP  RH WIND       PRES   REMARKS
VALENTINE      CLEAR     46  34  62 CALM      30.06R
AINSWORTH      CLEAR     49  38  67 S5        30.05R
BROKEN BOW     CLEAR     47  40  76 N3        30.05R
O`NEILL        CLEAR     50  42  73 S3        30.03F
ORD            CLEAR     45  40  82 W3        30.04R
THEDFORD       CLEAR     50  35  56 CALM      30.07R
$$

NEZ041-046>049-061>064-073>077-083>087-250500-
SOUTH CENTRAL NEBRASKA

CITY           SKY/WX    TMP DP  RH WIND       PRES   REMARKS
GRAND ISLAND   CLEAR     52  46  80 CALM      30.04R
AURORA         CLEAR     50  44  79 CALM      30.04R
HASTINGS       CLEAR     56  46  69 E5        30.04R
HEBRON         CLEAR     56  48  75 CALM      30.02R
HOLDREGE       CLEAR     52  39  61 CALM      30.04R
KEARNEY *      CLEAR     54  45  71 NE5       30.05R
YORK           CLEAR     52  48  87 NE9       30.03R
$$

NEZ011>018-030>034-042>045-250500-
NORTHEAST NEBRASKA

CITY           SKY/WX    TMP DP  RH WIND       PRES   REMARKS
NORFOLK        CLEAR     48  44  86 W3        30.03R
ALBION         CLEAR     46  41  83 CALM      30.04S
BLAIR          CLEAR     61  49  64 NW6       30.00R
COLUMBUS *     CLEAR     48  43  81 W3        30.05R
FREMONT        CLEAR     55  49  82 W3        30.01R
TEKAMAH        CLEAR     52  47  83 CALM      29.99S
WAYNE          CLEAR     48  44  88 S3        30.02S
$$

NEZ050>053-065>068-078-088>093-250500-
SOUTHEAST NEBRASKA

CITY           SKY/WX    TMP DP  RH WIND       PRES   REMARKS
LINCOLN        CLEAR     54  50  86 N5        30.02R
OMAHA EPPLEY   CLEAR     55  54  96 N3        30.00R
BEATRICE       CLEAR     55  53  92 CALM      30.00S
FALLS CITY     CLEAR     62  59  90 NW3       29.98R
NEBRASKA CITY  CLEAR     62  54  73 N5        29.99S
PLATTSMOUTH    CLEAR     58  54  85 CALM      30.00R
$$

NEZ044-045-051>053-067-250500-
OMAHA AREA

CITY           SKY/WX    TMP DP  RH WIND       PRES   REMARKS
OMAHA EPPLEY   CLEAR     55  54  96 N3        30.00R
BLAIR          CLEAR     61  49  64 NW6       30.00R
FREMONT        CLEAR     55  49  82 W3        30.01R
MILLARD        CLEAR     54  53  96 CALM      30.00R FOG
OFFUTT AFB     CLEAR     53  53 100 NW5       29.99R
PLATTSMOUTH    CLEAR     58  54  85 CALM      30.00R
WAHOO          FAIR      52  47  81 NW5       30.01R
$$



USA.gov is the U.S. government's official web portal to all federal, state and local government web resources and services.